• In Russia
  • List of Countries
  • For 7 days
  • Water Temperature
  • Weather Map
  • Weather Widgets
  • user-avatar
    Login

    Hourly Weather Megri

    Today, 25 August, Sunday

    Time Temperature Precipitation Wind Pressure Humidity
    00:00 +19°C° 0 mm 2 mps 624 mmHg 46%
    01:00 +19°C° 0 mm 2 mps 624 mmHg 47%
    02:00 +19°C° 0 mm 1 mps 624 mmHg 48%
    03:00 +18°C° 0 mm 1 mps 623 mmHg 48%
    04:00 +19°C° 0 mm 1 mps 624 mmHg 48%
    05:00 +19°C° 0 mm 1 mps 624 mmHg 48%
    06:00 +19°C° 0 mm 1 mps 624 mmHg 48%
    07:00 +21°C° 0 mm 1 mps 625 mmHg 41%
    08:00 +24°C° 0 mm 1 mps 626 mmHg 35%
    09:00 +26°C° 0 mm 1 mps 627 mmHg 28%
    10:00 +28°C° 0 mm 1 mps 627 mmHg 25%
    11:00 +29°C° 0 mm 2 mps 627 mmHg 22%
    12:00 +31°C° 0 mm 2 mps 627 mmHg 19%
    13:00 +31°C° 0 mm 2 mps 627 mmHg 19%
    14:00 +31°C° 0 mm 3 mps 627 mmHg 19%
    15:00 +31°C° 0 mm 3 mps 626 mmHg 19%
    16:00 +30°C° 0 mm 3 mps 626 mmHg 23%
    17:00 +29°C° 0 mm 3 mps 626 mmHg 27%
    18:00 +27°C° 0 mm 3 mps 625 mmHg 31%
    19:00 +26°C° 0 mm 3 mps 625 mmHg 35%
    20:00 +24°C° 0 mm 3 mps 625 mmHg 38%
    21:00 +22°C° 0 mm 3 mps 625 mmHg 42%
    22:00 +21°C° 0 mm 3 mps 624 mmHg 43%
    23:00 +20°C° 0 mm 3 mps 624 mmHg 43%

    Tomorrow, 26 August, Monday

    Time Temperature Precipitation Wind Pressure Humidity
    00:00 +20°C° 0 mm 3 mps 624 mmHg 44%
    01:00 +19°C° 0 mm 3 mps 624 mmHg 45%
    02:00 +18°C° 0 mm 3 mps 624 mmHg 47%
    03:00 +18°C° 0 mm 2 mps 623 mmHg 48%
    04:00 +18°C° 0 mm 2 mps 624 mmHg 48%
    05:00 +18°C° 0 mm 2 mps 624 mmHg 48%
    06:00 +18°C° 0 mm 2 mps 624 mmHg 47%
    07:00 +20°C° 0 mm 2 mps 625 mmHg 41%
    08:00 +23°C° 0 mm 2 mps 626 mmHg 35%
    09:00 +25°C° 0 mm 2 mps 627 mmHg 29%
    10:00 +27°C° 0 mm 2 mps 627 mmHg 27%
    11:00 +28°C° 0 mm 2 mps 627 mmHg 24%
    12:00 +30°C° 0 mm 3 mps 627 mmHg 22%
    13:00 +30°C° 0 mm 3 mps 627 mmHg 22%
    14:00 +30°C° 0 mm 3 mps 626 mmHg 22%
    15:00 +30°C° 0 mm 4 mps 626 mmHg 22%
    16:00 +28°C° 0 mm 4 mps 625 mmHg 25%
    17:00 +26°C° 0 mm 4 mps 625 mmHg 28%
    18:00 +25°C° 0 mm 4 mps 624 mmHg 32%
    19:00 +22°C° 0 mm 4 mps 624 mmHg 37%
    20:00 +20°C° 0 mm 4 mps 624 mmHg 43%
    21:00 +19°C° 0 mm 4 mps 624 mmHg 48%
    22:00 +17°C° 0 mm 4 mps 624 mmHg 54%
    23:00 +15°C° 0 mm 4 mps 624 mmHg 59%

    Day after tomorrow, 27 August, Tuesday

    Time Temperature Precipitation Wind Pressure Humidity
    00:00 +14°C° 0 mm 4 mps 624 mmHg 64%
    01:00 +14°C° 0 mm 4 mps 624 mmHg 62%
    02:00 +13°C° 0 mm 3 mps 624 mmHg 61%
    03:00 +13°C° 0 mm 3 mps 624 mmHg 59%
    04:00 +13°C° 0 mm 3 mps 624 mmHg 58%
    05:00 +15°C° 0 mm 2 mps 624 mmHg 56%
    06:00 +15°C° 0 mm 2 mps 624 mmHg 54%
    07:00 +17°C° 0 mm 2 mps 625 mmHg 48%
    08:00 +19°C° 0 mm 2 mps 625 mmHg 43%
    09:00 +23°C° 0 mm 2 mps 626 mmHg 37%
    10:00 +24°C° 0 mm 2 mps 626 mmHg 33%
    11:00 +26°C° 0 mm 2 mps 626 mmHg 30%
    12:00 +28°C° 0 mm 2 mps 627 mmHg 26%
    13:00 +29°C° 0 mm 2 mps 626 mmHg 25%
    14:00 +29°C° 0 mm 3 mps 626 mmHg 23%
    15:00 +30°C° 0 mm 3 mps 625 mmHg 21%
    16:00 +28°C° 0 mm 3 mps 625 mmHg 27%
    17:00 +26°C° 0 mm 3 mps 624 mmHg 33%
    18:00 +24°C° 0 mm 3 mps 623 mmHg 38%
    19:00 +21°C° 0 mm 3 mps 623 mmHg 45%
    20:00 +20°C° 0 mm 3 mps 623 mmHg 51%
    21:00 +18°C° 0 mm 3 mps 622 mmHg 57%
    22:00 +18°C° 0 mm 3 mps 622 mmHg 60%
    23:00 +17°C° 0 mm 3 mps 622 mmHg 62%

    28 August, Wednesday

    Time Temperature Precipitation Wind Pressure Humidity
    00:00 +17°C° 0 mm 3 mps 622 mmHg 65%
    01:00 +16°C° 0 mm 3 mps 622 mmHg 66%
    02:00 +16°C° 0 mm 2 mps 622 mmHg 67%
    03:00 +16°C° 0 mm 2 mps 622 mmHg 68%
    04:00 +16°C° 0 mm 2 mps 622 mmHg 67%
    05:00 +16°C° 0 mm 2 mps 622 mmHg 66%
    06:00 +16°C° 0 mm 2 mps 622 mmHg 66%
    07:00 +18°C° 0 mm 2 mps 623 mmHg 57%
    08:00 +20°C° 0 mm 2 mps 624 mmHg 48%
    09:00 +24°C° 0 mm 2 mps 625 mmHg 38%
    10:00 +25°C° 0 mm 2 mps 625 mmHg 33%
    11:00 +27°C° 0 mm 2 mps 625 mmHg 28%
    12:00 +28°C° 0 mm 3 mps 625 mmHg 23%
    13:00 +29°C° 0 mm 3 mps 625 mmHg 21%
    14:00 +29°C° 0 mm 3 mps 625 mmHg 19%
    15:00 +30°C° 0 mm 3 mps 625 mmHg 17%
    16:00 +29°C° 0 mm 3 mps 625 mmHg 21%
    17:00 +27°C° 0 mm 3 mps 624 mmHg 25%
    18:00 +26°C° 0 mm 3 mps 624 mmHg 28%
    19:00 +24°C° 0 mm 3 mps 624 mmHg 35%
    20:00 +21°C° 0 mm 3 mps 623 mmHg 41%
    21:00 +19°C° 0 mm 3 mps 623 mmHg 48%
    22:00 +18°C° 0 mm 3 mps 623 mmHg 50%
    23:00 +18°C° 0 mm 3 mps 623 mmHg 52%

    29 August, Thursday

    Time Temperature Precipitation Wind Pressure Humidity
    00:00 +17°C° 0 mm 3 mps 623 mmHg 54%
    01:00 +17°C° 0 mm 2 mps 623 mmHg 56%
    02:00 +17°C° 0 mm 2 mps 623 mmHg 58%
    03:00 +16°C° 0 mm 2 mps 623 mmHg 60%
    04:00 +16°C° 0 mm 2 mps 623 mmHg 59%
    05:00 +16°C° 0 mm 2 mps 623 mmHg 59%
    06:00 +16°C° 0 mm 2 mps 623 mmHg 59%
    07:00 +19°C° 0 mm 2 mps 624 mmHg 49%
    08:00 +23°C° 0 mm 1 mps 625 mmHg 40%
    09:00 +26°C° 0 mm 1 mps 626 mmHg 31%
    10:00 +27°C° 0 mm 2 mps 626 mmHg 27%
    11:00 +29°C° 0 mm 2 mps 626 mmHg 23%
    12:00 +31°C° 0 mm 3 mps 626 mmHg 19%
    13:00 +31°C° 0 mm 3 mps 626 mmHg 20%
    14:00 +32°C° 0 mm 4 mps 625 mmHg 20%
    15:00 +32°C° 0 mm 4 mps 625 mmHg 21%
    16:00 +28°C° 0.2 mm 4 mps 624 mmHg 28%
    17:00 +26°C° 0.2 mm 4 mps 624 mmHg 35%
    18:00 +23°C° 0.2 mm 4 mps 624 mmHg 42%
    19:00 +22°C° 0.1 mm 3 mps 624 mmHg 45%
    20:00 +21°C° 0.1 mm 3 mps 624 mmHg 47%
    21:00 +20°C° 0.1 mm 2 mps 624 mmHg 50%
    22:00 +19°C° 0 mm 2 mps 624 mmHg 52%
    23:00 +19°C° 0 mm 2 mps 623 mmHg 53%

    30 August, Friday

    Time Temperature Precipitation Wind Pressure Humidity
    00:00 +18°C° 0 mm 2 mps 623 mmHg 55%
    01:00 +17°C° 0 mm 2 mps 623 mmHg 59%
    02:00 +17°C° 0 mm 2 mps 622 mmHg 64%
    03:00 +16°C° 0 mm 2 mps 622 mmHg 68%
    04:00 +17°C° 0.1 mm 2 mps 622 mmHg 65%
    05:00 +17°C° 0.1 mm 2 mps 623 mmHg 61%
    06:00 +18°C° 0.1 mm 3 mps 623 mmHg 58%
    07:00 +20°C° 0.1 mm 2 mps 624 mmHg 52%
    08:00 +23°C° 0.1 mm 2 mps 624 mmHg 46%
    09:00 +25°C° 0.1 mm 2 mps 625 mmHg 39%
    10:00 +26°C° 0.1 mm 3 mps 625 mmHg 36%
    11:00 +28°C° 0.1 mm 4 mps 625 mmHg 33%
    12:00 +29°C° 0.1 mm 5 mps 625 mmHg 30%
    13:00 +28°C° 0 mm 5 mps 624 mmHg 34%
    14:00 +27°C° 0 mm 5 mps 624 mmHg 38%
    15:00 +26°C° 0 mm 5 mps 623 mmHg 42%
    16:00 +25°C° 0 mm 5 mps 622 mmHg 46%
    17:00 +23°C° 0 mm 5 mps 622 mmHg 50%
    18:00 +22°C° 0 mm 5 mps 621 mmHg 55%
    19:00 +20°C° 0 mm 5 mps 621 mmHg 63%
    20:00 +17°C° 0 mm 5 mps 621 mmHg 71%
    21:00 +16°C° 0 mm 5 mps 621 mmHg 78%
    22:00 +15°C° 0 mm 4 mps 621 mmHg 80%
    23:00 +15°C° 0 mm 4 mps 621 mmHg 82%
    Show more